Location: The Saddle
(36.8333°N, 80.3417°W)
Time: 07:28:18
(UTC-04:00)

Vanguard 2 Rocket - Pass Details

Date: 01 February 2023
Orbit: 555 x 3316 km, 32.9° (Epoch: 27 March)

Event Time Altitude Azimuth Distance (km) Brightness Sun altitude
Rises 16:01:23 0° 268° (W) 2,879 10.4 17.5°
Reaches altitude 10° 16:03:40 10° 254° (WSW) 2,123 10.3 17.1°
Maximum altitude 16:07:43 27° 196° (SSW) 1,594 9.2 16.5°
Drops below altitude 10° 16:13:29 10° 142° (SE) 3,105 9.7 15.5°
Sets 16:17:36 0° 132° (SE) 4,557 10.4 14.9°
